This is the latest recevied weather packets stored in our database for station/object N4ASP-13. If no packets are shown the sender has not sent any weather packets the latest 1 day(s).
| Time | Temp. | Humidity | Pressure | Rain* | Wind** | Luminosity | Snow |
|---|---|---|---|---|---|---|---|
| 1778072270 | 15° C | 86% | 1013.7 hPa | 0 mm | - | 207 W/m² | - |
| 1778072210 | 15° C | 86% | 1013.4 hPa | 0 mm | - | 195 W/m² | - |
| 1778072083 | 15° C | 87% | 1013.4 hPa | 0 mm | - | 185 W/m² | - |
| 1778072023 | 15° C | 87% | 1013.4 hPa | 0 mm | - | 178 W/m² | - |
| 1778071719 | 15° C | 87% | 1013.4 hPa | 0 mm | - | 181 W/m² | - |
| 1778071657 | 14.44° C | 88% | 1013.4 hPa | 0 mm | - | 192 W/m² | - |
| 1778071288 | 14.44° C | 88% | 1013.5 hPa | 0 mm | - | 248 W/m² | - |
| 1778071222 | 14.44° C | 88% | 1013.5 hPa | 0 mm | - | 241 W/m² | - |
| 1778071042 | 14.44° C | 88% | 1013.3 hPa | 0 mm | - | 181 W/m² | - |
| 1778070982 | 14.44° C | 88% | 1013.2 hPa | 0 mm | - | 174 W/m² | - |
| 1778070739 | 14.44° C | 88% | 1013.1 hPa | 0 mm | - | 181 W/m² | - |
| 1778070676 | 14.44° C | 88% | 1013 hPa | 0 mm | - | 185 W/m² | - |
| 1778070300 | 13.89° C | 89% | 1013.1 hPa | 0 mm | - | 190 W/m² | - |
| 1778070181 | 13.89° C | 89% | 1013.2 hPa | 0 mm | - | 186 W/m² | - |
| 1778070119 | 13.89° C | 89% | 1013.1 hPa | 0 mm | - | 185 W/m² | - |
| 1778069999 | 13.89° C | 89% | 1013.1 hPa | 0 mm | - | 178 W/m² | - |
| 1778069629 | 13.89° C | 89% | 1012.8 hPa | 0 mm | - | 153 W/m² | - |
| 1778069388 | 13.89° C | 89% | 1013 hPa | 0 mm | - | 139 W/m² | - |
| 1778069146 | 13.89° C | 89% | 1013.1 hPa | 0 mm | - | 113 W/m² | - |
| 1778068786 | 13.33° C | 89% | 1013.2 hPa | 0 mm | - | 100 W/m² | - |
| 1778068667 | 13.33° C | 89% | 1013.2 hPa | 0 mm | - | 90 W/m² | - |
| 1778068605 | 13.33° C | 89% | 1013.2 hPa | 0 mm | - | 86 W/m² | - |
| 1778068486 | 13.33° C | 89% | 1013.1 hPa | 0 mm | - | 83 W/m² | - |
| 1778068304 | 13.33° C | 89% | 1013.2 hPa | 0 mm | - | 83 W/m² | - |
| 1778068064 | 13.33° C | 89% | 1013.4 hPa | 0 mm | - | 62 W/m² | - |
* Rain latest hour (hover to see other rain measurements)
** Current wind speed in m/s (hover to see current wind gust speed)